Tracking 30995 objects as of 7-Jul-2025
HD Live streaming from Space Station
objects crossing your sky now

STARLINK-31318

Track STARLINK-31318 now!
10-day predictions
STARLINK-31318 is classified as:


NORAD ID: 58885
Int'l Code: 2024-020K
Perigee: 481.6 km
Apogee: 483.1 km
Inclination: 53.2 °
Period: 94.1 minutes
Semi major axis: 6853 km
RCS: Unknown
Launch date: January 29, 2024
Source: United States (US)
Launch site: AIR FORCE WESTERN TEST RANGE (AFWTR)
Your satellite tracking list
SIRIUS 3
Track 1 satellite(s)




NASA's NSSDC Master Catalog

Two Line Element Set (TLE):
1 58885U 24020K   25187.56545794 -.00001061  00000-0 -23688-4 0  9991
2 58885  53.1612  25.9702 0001053  72.8241 287.2874 15.30205543 80387
Source of the keplerian elements: AFSPC